Tracking 19279 objects as of 13-Nov-2018
HD Live streaming from Space Station
objects crossing your sky now

COSMOS 1581

Track COSMOS 1581 now!
COSMOS 1581 is classified as:


NORAD ID: 15095
Int'l Code: 1984-071A
Perigee: 4,019.6 km
Apogee: 36,513.6 km
Inclination: 66.5 °
Period: 721.1 minutes
Semi major axis: 26637 km
RCS: 9.1322 m2 (large)
Launch date: July 3, 1984
Source: Commonwealth of Independent States (former USSR) (CIS)
Launch site: PLESETSK MISSILE AND SPACE COMPLEX (PKMTR)
aabbcc
Your satellite tracking list
Your tracking list is empty




NASA's NSSDC Master Catalog

Two Line Element Set (TLE):
1 15095U 84071A   18316.41272507  .00000867  00000-0  00000+0 0  9997
2 15095  66.4662 260.8173 6099273  54.6905 348.1305  1.99691919225225
Source of the keplerian elements: AFSPC